{"data":{"norad_id":62511,"intl_designator":"2025-004A","name":"STARLINK-11452 [DTC]","alt_names":[],"object_type":"PAYLOAD","status":"ACTIVE","operator":null,"country":"US","launch_date":"2025-01-08","launch_site_code":"AFETR","launch_vehicle":null,"mission":null,"orbit_class":"UNKNOWN","rcs_meters":null,"size_class":null,"mass_kg":null,"dimensions":null,"purposes":["comms"],"wikipedia_slug":null,"has_3d_model":false,"image_url":null,"decayed_at":null,"tle_current":{"epoch":"2026-09-21T11:49:43.014144Z","epoch_age_seconds":88786,"freshness":"FRESH","line1":"1 62511U 25004A   26264.49285896  .00137161  00000+0  10523-2 0  9998","line2":"2 62511  42.9995 330.4626 0003737 258.1298 101.9151 15.70892134 98920","mean_motion":15.70892134,"eccentricity":0.0003737,"inclination_deg":42.9995,"raan_deg":330.4626,"arg_perigee_deg":258.1298,"mean_anomaly_deg":101.9151,"bstar":0.0010523,"rev_number":9892,"period_min":91.667656157479,"perigee_km":353.82938064217,"apogee_km":358.86273327894,"semimajor_km":6734.4830569606,"source":"CELESTRAK","updated_at":"2026-09-22T09:00:49.621216Z"}}}